• MPC Preparation (Info)

  • MPEC 2023-M74 : 2023 MM1

    The following Minor Planet Electronic Circular may be linked-to from your own Web pages, but must not otherwise be redistributed electronically.

    A form allowing access to any MPEC is at the bottom of this page.


    Read MPEC 2023-M73 Read MPEC 2023-M75


    M.P.E.C. 2023-M74                                 Issued 2023 June 21, 10:49 UT
    
         The Minor Planet Electronic Circulars contain information on unusual
             minor planets, routine data on comets and natural satellites,
             and occasional editorial announcements.  They are published
        on behalf of Division F of the International Astronomical Union by the
              Minor Planet Center, Smithsonian Astrophysical Observatory,
                              Cambridge, MA 02138, U.S.A.
    			  
                 Prepared using the Tamkin Foundation Computer Network
    
                                  MPC@CFA.HARVARD.EDU
                URL https://www.minorplanetcenter.net/    ISSN 1523-6714
    
                                    2023 MM1                                 
    
    
    Observations:
         K23M01M* C2023 06 19.44879116 55 08.954+10 59 33.50         21.15wXEM074F51
         K23M01M  C2023 06 19.46066616 55 10.662+10 59 09.36         21.19wXEM074F51
         K23M01M  C2023 06 19.47242216 55 12.337+10 58 45.28         21.20wXEM074F51
         K23M01M  C2023 06 19.48420416 55 14.055+10 58 21.00         21.30wXEM074F51
         K23M01M  C2023 06 19.49002516 55 14.900+10 58 09.11         21.47wXEM074F51
         K23M01M  C2023 06 19.50165616 55 16.602+10 57 45.14         21.23wXEM074F51
         K23M01M  C2023 06 19.51332116 55 18.324+10 57 20.90         21.18wXEM074F51
         K23M01M  C2023 06 19.53084616 55 20.988+10 56 44.16         21.46wXEM074F51
         K23M01M  C2023 06 19.55981216 55 25.429+10 55 43.61         21.26GVEM074F51
         K23M01M  C2023 06 19.56062716 55 25.550+10 55 41.66         20.94GVEM074F51
         K23M01M KC2023 06 20.18660916 57 20.44 +10 33 25.4          21.1 VuEM074H21
         K23M01M KC2023 06 20.19526216 57 21.81 +10 33 06.3          20.9 VuEM074H21
         K23M01M KB2023 06 21.13274 17 00 20.36 +09 57 07.6          20.3 rZEM074H36
         K23M01M KB2023 06 21.14139 17 00 21.89 +09 56 49.0          20.9 rZEM074H36
         K23M01M KB2023 06 21.15012 17 00 23.51 +09 56 27.6          20.7 rZEM074H36
         K23M01M KC2023 06 21.24098717 00 38.47 +09 52 45.9          20.7 VuEM074H21
         K23M01M KC2023 06 21.24691017 00 39.48 +09 52 31.2          21.2 VuEM074H21
         K23M01M KC2023 06 21.24971517 00 39.97 +09 52 24.5          21.3 VuEM074H21
    
    Observer details:
    F51 Pan-STARRS 1, Haleakala.  Observers J. Bulger, T. Lowe, P. Minguez, A.
        Schultz, I. Smith, K. Chambers.  Measurers K. Chambers, T. de Boer, J.
        Bulger, J. Fairlamb, H. Gao, M. Huber, C.-C. Lin, T. Lowe, E. Magnier, P.
        Minguez, Y. Ramanjooloo, A. Schultz, I. Smith, R. Wainscoat, R. Weryk, S.
        Chastel.  1.8-m Ritchey-Chretien + CCD.
    H21 Astronomical Research Observatory, Westfield.  Observer R. Holmes.
        Measurers T. Linder, R. Holmes, L. Horn.  0.81-m f/4.0 astrograph + CCD.
    H36 Sandlot Observatory, Scranton.  Observer G. Hug.  0.56-m f/4.2 .56 meter
        reflector + CMOS.
    
    Orbital elements:
    2023 MM1                                                 Earth MOID = 0.0543 AU
    Epoch 2023 Feb. 25.0 TT = JDT 2460000.5                 Veres                   
    M 315.60518              (2000.0)            P               Q                  
    n   0.31446430     Peri.  187.80427     +0.40872789     +0.89831229             
    a   2.1416828      Node   106.43700     -0.82800754     +0.43926557             
    e   0.5007011      Incl.    9.67388     -0.38385548     +0.00898798             
    P   3.13           H   24.22          G   0.15           U   9                  
    Residuals in seconds of arc
    230619 F51  0.0   0.1+    230619 F51  0.1-  0.3+    230621 H36  0.6-  1.1-
    230619 F51  0.2+  0.2+    230619 F51  0.3+  0.0     230621 H36  0.3-  0.9+
    230619 F51  0.0   0.2+    230619 F51  0.1+  0.2+    230621 H36  1.3+  0.4+
    230619 F51  0.2+  0.1+    230619 F51  0.0   0.0     230621 H21  0.1+  0.0
    230619 F51  0.1+  0.2+    230620 H21  0.2-  0.0     230621 H21  0.1-  0.1-
    230619 F51  0.0   0.3+    230620 H21  0.1+  0.3-    230621 H21  0.0   0.1+
    
    Ephemeris:
    2023 MM1                 a,e,i = 2.14, 0.50, 10                  q = 1.0693
    Date    TT    R. A. (2000) Decl.     Delta      r    Elong.  Phase     V
    2023 05 22    16 20 38.3 +13 32 40   0.2675  1.2419   145.5    27.5    23.1
    ...
    2023 06 06    16 31 22.3 +14 31 47   0.1844  1.1663   142.5    32.0    22.2
    ...
    2023 06 14    16 42 37.9 +13 14 36   0.1448  1.1332   142.0    33.5    21.7
    ...
    2023 06 20    16 56 46.3 +10 40 46   0.1171  1.1123   143.3    33.1    21.2
    2023 06 21    16 59 52.1 +10 03 09   0.1127  1.1092   143.8    32.8    21.1
    2023 06 22    17 03 14.1 +09 21 11   0.1083  1.1061   144.4    32.4    21.0
    ...
    2023 06 28    17 30 57.1 +03 10 00   0.08400 1.0904   150.4    27.4    20.3
    ...
    2023 07 06    18 42 04.6 -13 18 07   0.06021 1.0760   169.8     9.6    18.9
    ...
    2023 07 21    22 58 48.2 -43 18 22   0.07373 1.0708   136.4    40.9    20.3
    
    M. P. C. Staff               (C) Copyright 2023 MPC           M.P.E.C. 2023-M74
    


    Read MPEC 2023-M73 Read MPEC 2023-M75


    MPEC number:

    Enter an MPEC number in one of the following forms:

    • 1997-B01 (the full form)
    • J97B01 (the packed version of the full form)
    • B01 (the abbreviated form)